Location: Be?chatów
(51.3665°N, 19.3745°E)
Time: 17:26:39
(UTC+00:00)

Cosmos 1238 Rocket - Pass Details

Date: 19 May 2025
Orbit: 356 x 776 km, 82.9° (Epoch: 20 June)

Event Time Altitude Azimuth Distance (km) Brightness Sun altitude
Exits shadow 19:47:44 13° 135° (SE) 1,487 4.3 -9.4°
Maximum altitude 19:49:55 22° 91° (E) 1,078 4.0 -9.6°
Drops below altitude 10° 19:52:33 10° 39° (NE) 1,546 5.3 -9.9°
Sets 19:54:46 0° 23° (NNE) 2,355 6.5 -10.1°
